Location: Angwan Shehu
(11.2514°N, 7.4613°E)
Time: 20:29:38
(UTC+00:00)

N. Korean satellite - Pass Details

Date: 15 March 2021
Orbit: 452 x 499 km, 97.2° (Epoch: 15 April)

Event Time Altitude Azimuth Distance (km) Brightness Sun altitude
Rises 04:51:07 0° 2° (N) 2,570 10.3 -12.2°
Reaches altitude 10° 04:53:14 10° 356° (N) 1,692 9.3 -11.6°
Maximum altitude 04:56:45 48° 282° (WNW) 661 6.8 -10.8°
Drops below altitude 10° 05:00:17 10° 207° (SSW) 1,698 9.1 -9.9°
Sets 05:02:25 0° 201° (SSW) 2,580 10.0 -9.4°
